Location: Peterborough
(44.3091°N, 78.3197°W)
Time: 01:48:24
(UTC-04:00)

Vanguard 2 Rocket - Pass Details

Date: 29 March 2023
Orbit: 554 x 3314 km, 32.9° (Epoch: 02 June)

Event Time Altitude Azimuth Distance (km) Brightness Sun altitude
Rises 20:49:08 0° 245° (WSW) 3,365 10.6 -13.5°
Reaches altitude 10° 20:51:22 10° 236° (SW) 2,660 9.8 -13.8°
Maximum altitude 20:57:15 37° 170° (S) 1,912 8.3 -14.8°
Enters shadow 21:03:16 20° 118° (ESE) 3,272 9.1 -15.8°
Drops below altitude 10° 21:06:58 10° 109° (ESE) 4,405 - -16.4°
Sets 21:11:48 0° 103° (ESE) 5,890 - -17.2°
